time,it,sc,msc,dt,rho,mx,my,mz,p,bx,by,bz,pmin,pmax,dst_sm,dstflx_R=3.0,AL,AU,AE
2011-08-05 15:00:00,50000,0,0,0.0,4.31046,-3.02768e-15,4.63042e-17,-6.24042e-17,0.00843159,0.134265,0.313643,2.16718,2.48344e-05,1.00551,4.62544,0.0882401,-12.47,12.11,24.57
2011-08-05 15:01:00,52113,0,0,0.0263298,4.31185,-3.02886e-15,4.62044e-17,-6.23611e-17,0.00843206,0.134079,0.309205,2.16989,2.4374e-05,1.00581,4.58432,0.157455,-2.21,14.79,17.0
2011-08-05 15:02:00,54226,0,0,0.00253241,4.31561,-3.03153e-15,4.58996e-17,-6.22587e-17,0.0084384,0.133909,0.300872,2.17379,2.38537e-05,1.00385,4.62551,0.268576,-3.19,15.86,19.05
2011-08-05 15:03:00,56339,0,0,0.000609745,4.31959,-3.03427e-15,4.54236e-17,-6.22098e-17,0.008446,0.133748,0.30102,2.17352,2.31573e-05,1.00244,4.74846,0.368614,-4.39,15.74,20.13
2011-08-05 15:04:00,58451,0,0,0.0260781,4.32278,-3.03638e-15,4.47976e-17,-6.23852e-17,0.00845195,0.133596,0.303056,2.17195,2.26424e-05,1.00922,4.81459,0.474823,-4.58,15.82,20.4
2011-08-05 15:05:00,60563,0,0,0.0186506,4.32581,-3.03827e-15,4.40125e-17,-6.2906e-17,0.00845843,0.133453,0.29973,2.17132,2.20786e-05,1.01974,4.86444,0.584506,-4.74,15.72,20.47
2011-08-05 15:06:00,62675,0,0,0.0141128,4.3287,-3.04001e-15,4.31839e-17,-6.36453e-17,0.0084652,0.133317,0.294554,2.1722,2.16417e-05,0.983938,4.95253,0.753111,-4.62,15.62,20.24
2011-08-05 15:07:00,64787,0,0,0.0170275,4.33095,-3.04131e-15,4.23764e-17,-6.44436e-17,0.00846957,0.133182,0.291607,2.17555,2.13245e-05,0.99454,5.07354,0.918936,-4.0,15.9,19.9
2011-08-05 15:08:00,66899,0,0,0.0120986,4.33146,-3.04128e-15,4.14726e-17,-6.52965e-17,0.00846605,0.133047,0.297384,2.17755,2.1016e-05,0.976428,5.14181,0.99034,-3.82,15.78,19.6
2011-08-05 15:09:00,69011,0,0,0.00585517,4.32968,-3.0396e-15,4.06438e-17,-6.61006e-17,0.00845627,0.132912,0.312502,2.17613,1.5e-05,0.94547,5.33815,1.15327,-3.5,15.53,19.02
2011-08-05 15:10:00,71123,0,0,0.00137742,4.32594,-3.03667e-15,4.02252e-17,-6.67217e-17,0.00844994,0.132774,0.318539,2.17816,1.5e-05,0.965882,5.34232,1.26733,-3.07,15.55,18.62
2011-08-05 15:11:00,73234,0,0,0.0255236,4.31939,-3.03185e-15,3.99244e-17,-6.7162e-17,0.00843783,0.132633,0.31064,2.18393,1.5e-05,0.90637,5.34971,1.33596,-2.7,15.11,17.81
2011-08-05 15:12:00,75345,0,0,0.0199962,4.31026,-3.02515e-15,3.93869e-17,-6.75321e-17,0.00841417,0.132488,0.305749,2.18714,1.5e-05,0.893613,5.40347,1.38377,-2.45,14.5,16.95
2011-08-05 15:13:00,77456,0,0,0.0136474,4.30151,-3.01853e-15,3.86577e-17,-6.79902e-17,0.00839229,0.13234,0.306643,2.18843,1.5e-05,0.872378,5.46416,1.42952,-2.1,14.04,16.14
2011-08-05 15:14:00,79567,0,0,0.00566327,4.29352,-3.01238e-15,3.7838e-17,-6.8532e-17,0.00837412,0.132189,0.311377,2.19006,1.5e-05,0.853186,5.3237,1.3509,-2.13,13.3,15.43
2011-08-05 15:15:00,81678,0,0,0.000644303,4.28454,-3.00563e-15,3.70494e-17,-6.90195e-17,0.00835278,0.132039,0.31745,2.19311,1.5e-05,0.824245,5.18875,1.3036,-1.91,12.54,14.45
2011-08-05 15:16:00,83789,0,0,0.00175251,4.27569,-2.99916e-15,3.64814e-17,-6.94502e-17,0.00832688,0.131887,0.325827,2.19604,1.5e-05,0.802804,5.11134,1.26954,-1.8,12.18,13.99
2011-08-05 15:17:00,85900,0,0,0.00774488,4.26864,-2.99416e-15,3.63013e-17,-6.98607e-17,0.00829602,0.131733,0.336611,2.19646,1.5e-05,0.769312,4.93793,1.1014,-1.63,11.73,13.36
2011-08-05 15:18:00,88011,0,0,0.0132496,4.26187,-2.98924e-15,3.59836e-17,-7.02862e-17,0.00826604,0.13158,0.346204,2.19558,1.5e-05,0.709537,4.61649,0.87733,-1.67,10.9,12.57
2011-08-05 15:19:00,90122,0,0,0.0209297,4.25379,-2.98297e-15,3.50141e-17,-7.07592e-17,0.00824349,0.131427,0.358216,2.19397,1.5e-05,0.666372,4.41744,0.764156,-1.48,10.81,12.29
2011-08-05 15:20:00,92234,0,0,0.00920838,4.24661,-2.97693e-15,3.37832e-17,-7.14351e-17,0.00822326,0.131275,0.366755,2.19053,1.5e-05,0.661889,4.3385,0.722992,-0.98,11.18,12.16
2011-08-05 15:21:00,94347,0,0,0.00247362,4.24182,-2.97225e-15,3.26401e-17,-7.23926e-17,0.00819958,0.131124,0.364156,2.18778,1.5e-05,0.678001,4.32094,0.745138,-0.82,11.46,12.27
2011-08-05 15:22:00,96460,0,0,0.0135579,4.23679,-2.96715e-15,3.14868e-17,-7.3296e-17,0.0081708,0.130973,0.354772,2.18474,1.5e-05,0.682882,4.37393,0.790769,-0.8,11.69,12.49
2011-08-05 15:23:00,98573,0,0,0.0122698,4.22982,-2.96055e-15,3.03109e-17,-7.39468e-17,0.00813805,0.13082,0.340606,2.17928,1.5e-05,0.696824,4.58556,0.934471,-1.16,12.2,13.36
2011-08-05 15:24:00,100686,0,0,0.0104672,4.22272,-2.95386e-15,2.94769e-17,-7.46065e-17,0.00810935,0.130663,0.319253,2.17467,1.5e-05,0.721776,4.765,1.1047,-2.15,12.95,15.1
2011-08-05 15:25:00,102799,0,0,0.00821159,4.21696,-2.94824e-15,2.92975e-17,-7.5489e-17,0.00809129,0.130498,0.282201,2.17079,1.5e-05,0.711313,4.64664,1.00364,-1.39,13.17,14.57
2011-08-05 15:26:00,104911,0,0,0.0251994,4.21203,-2.94321e-15,2.93213e-17,-7.65074e-17,0.00807794,0.130328,0.234026,2.16494,1.5e-05,0.640218,4.43721,0.854396,-0.6,13.0,13.6
2011-08-05 15:27:00,107023,0,0,0.00813376,4.20747,-2.93828e-15,2.90848e-17,-7.75721e-17,0.00806529,0.130156,0.186439,2.1586,1.5e-05,0.568641,4.45408,0.932975,-0.85,12.96,13.81
2011-08-05 15:28:00,109135,0,0,0.0153009,4.2022,-2.9326e-15,2.87084e-17,-7.86332e-17,0.00805082,0.129979,0.138555,2.15202,1.5e-05,0.599666,4.58729,1.02302,-0.79,13.46,14.26
2011-08-05 15:29:00,111247,0,0,0.0249677,4.19519,-2.92537e-15,2.83114e-17,-7.96517e-17,0.00803131,0.129798,0.0883452,2.14475,1.5e-05,0.62306,4.61966,1.00603,-0.59,13.85,14.44
2011-08-05 15:30:00,113360,0,0,0.00207207,4.18751,-2.91748e-15,2.77924e-17,-8.07888e-17,0.00801117,0.129614,0.0379959,2.13545,1.5e-05,0.606203,4.72909,1.05205,-1.15,14.36,15.52
2011-08-05 15:31:00,115473,0,0,0.00333672,4.17998,-2.90963e-15,2.7075e-17,-8.21345e-17,0.00799459,0.129427,-0.0131724,2.12189,1.5e-05,0.587412,5.02334,1.21826,-2.16,14.85,17.01
2011-08-05 15:32:00,117586,0,0,0.00284488,4.17151,-2.9011e-15,2.62473e-17,-8.34118e-17,0.00797989,0.129237,-0.0660637,2.10484,1.5e-05,0.604987,5.19413,1.27059,-2.09,15.13,17.21
2011-08-05 15:33:00,119698,0,0,0.0280216,4.1617,-2.89162e-15,2.53902e-17,-8.4504e-17,0.00796622,0.129046,-0.120464,2.08631,1.5e-05,0.578796,5.26069,1.29041,-1.4,15.1,16.5
2011-08-05 15:34:00,121810,0,0,0.0217681,4.15162,-2.882e-15,2.4531e-17,-8.565e-17,0.00795596,0.128855,-0.175538,2.06414,1.5e-05,0.548354,5.39484,1.31741,-0.54,15.14,15.68
2011-08-05 15:35:00,123922,0,0,0.00952931,4.14081,-2.87195e-15,2.36213e-17,-8.68946e-17,0.00794645,0.128666,-0.230975,2.03893,1.5e-05,0.534519,5.38435,1.24868,0.2,14.73,14.53
2011-08-05 15:36:00,126034,0,0,0.00163873,4.12734,-2.86015e-15,2.2554e-17,-8.80572e-17,0.00793036,0.128484,-0.287536,2.01053,1.5e-05,0.504721,5.38256,1.16161,0.74,14.24,13.5
2011-08-05 15:37:00,128146,0,0,0.000681738,4.11188,-2.84699e-15,2.14793e-17,-8.91859e-17,0.00791004,0.128315,-0.3438,1.97624,1.5e-05,0.49994,5.50748,1.15219,0.66,13.7,13.04
2011-08-05 15:38:00,130258,0,0,0.0081902,4.09656,-2.83389e-15,2.06566e-17,-9.046e-17,0.00789303,0.128161,-0.39766,1.93775,1.5e-05,0.488144,5.66062,1.16818,0.26,13.2,12.94
2011-08-05 15:39:00,132370,0,0,0.0159739,4.08094,-2.82046e-15,1.99009e-17,-9.17166e-17,0.00787138,0.128025,-0.447577,1.89926,1.5e-05,0.517266,5.66879,1.15247,-0.17,12.52,12.69
2011-08-05 15:40:00,134482,0,0,0.0147183,4.06395,-2.806e-15,1.89405e-17,-9.27823e-17,0.00783716,0.127908,-0.49699,1.86637,1.5e-05,0.579176,5.54066,1.14473,-1.58,11.54,13.12
2011-08-05 15:41:00,136594,0,0,0.00727759,4.04614,-2.79082e-15,1.78078e-17,-9.38748e-17,0.0077999,0.127806,-0.547756,1.83817,1.5e-05,0.589221,5.45235,1.1539,-1.9,10.36,12.27
2011-08-05 15:42:00,138706,0,0,0.00224644,4.02948,-2.77628e-15,1.66832e-17,-9.52383e-17,0.00776659,0.127716,-0.597031,1.81026,1.5e-05,0.577654,5.4006,1.11631,-1.9,10.01,11.91
2011-08-05 15:43:00,140817,0,0,0.0244705,4.01656,-2.76414e-15,1.58359e-17,-9.70183e-17,0.00773734,0.127637,-0.635619,1.7762,1.5e-05,0.551431,5.4085,0.989808,-1.75,10.7,12.45
2011-08-05 15:44:00,142928,0,0,0.0172265,4.00554,-2.75331e-15,1.52153e-17,-9.88837e-17,0.00770446,0.127566,-0.666031,1.73695,1.5e-05,0.521528,5.33002,0.864444,-1.56,11.05,12.61
2011-08-05 15:45:00,145039,0,0,0.0129607,3.99334,-2.74182e-15,1.46103e-17,-1.00422e-16,0.00766244,0.127502,-0.700425,1.70287,1.5e-05,0.481852,5.0506,0.737269,-1.85,10.8,12.65
2011-08-05 15:46:00,147150,0,0,0.0105516,3.98196,-2.7309e-15,1.40795e-17,-1.01869e-16,0.00761944,0.127444,-0.736359,1.67161,1.5e-05,0.426384,4.85715,0.606293,-2.63,10.61,13.24
2011-08-05 15:47:00,149261,0,0,0.0132175,3.97263,-2.72128e-15,1.36559e-17,-1.03362e-16,0.00758105,0.12739,-0.772669,1.64013,1.5e-05,0.40594,4.73604,0.516687,-2.97,10.23,13.2
2011-08-05 15:48:00,151372,0,0,0.013293,3.96349,-2.71178e-15,1.32441e-17,-1.04689e-16,0.00754285,0.127338,-0.80948,1.61065,1.5e-05,0.440347,4.59515,0.404581,-3.26,10.45,13.72
2011-08-05 15:49:00,153483,0,0,0.00637199,3.95502,-2.70268e-15,1.27388e-17,-1.05782e-16,0.00750314,0.127285,-0.846192,1.58289,1.5e-05,0.468368,4.45573,0.339604,-3.46,10.45,13.91
2011-08-05 15:50:00,155593,0,0,0.0256928,3.94902,-2.69511e-15,1.20825e-17,-1.06671e-16,0.00746408,0.127231,-0.880339,1.55697,1.5e-05,0.443914,4.58091,0.476568,-4.1,9.9,14.01
2011-08-05 15:51:00,157703,0,0,0.0110876,3.94358,-2.68782e-15,1.1471e-17,-1.07189e-16,0.00742737,0.127174,-0.908854,1.52913,1.5e-05,0.484937,4.91241,0.64748,-4.11,9.95,14.06
2011-08-05 15:52:00,159812,0,0,0.0230147,3.93611,-2.67916e-15,1.10318e-17,-1.07278e-16,0.00739301,0.127111,-0.935907,1.5061,1.5e-05,0.513527,4.87467,0.666278,-3.97,11.1,15.06
2011-08-05 15:53:00,161921,0,0,0.0107489,3.9247,-2.6678e-15,1.04382e-17,-1.07315e-16,0.00735715,0.127043,-0.96844,1.491,1.5e-05,0.511395,4.84242,0.732352,-4.7,12.69,17.39
2011-08-05 15:54:00,164029,0,0,0.024244,3.90891,-2.65338e-15,9.575500000000001e-18,-1.07537e-16,0.00731707,0.126967,-1.00571,1.47309,1.5e-05,0.525052,5.00859,0.817926,-5.71,13.28,18.99
2011-08-05 15:55:00,166137,0,0,0.00488335,3.89086,-2.63735e-15,8.666680000000001e-18,-1.07894e-16,0.00727389,0.126883,-1.04282,1.45133,1.5e-05,0.52468,5.06914,0.795769,-5.98,14.45,20.43
2011-08-05 15:56:00,168244,0,0,0.013411,3.87199,-2.6206e-15,7.80384e-18,-1.08281e-16,0.00722731,0.126796,-1.07926,1.42912,1.5e-05,0.525507,5.10851,0.808631,-6.58,15.43,22.01
2011-08-05 15:57:00,170351,0,0,0.00104413,3.85308,-2.60353e-15,6.964340000000001e-18,-1.08568e-16,0.00717713,0.126704,-1.11332,1.40657,1.5e-05,0.537658,5.19037,0.847859,-7.04,15.2,22.24
2011-08-05 15:58:00,172457,0,0,0.0204335,3.83362,-2.58588e-15,6.03498e-18,-1.09024e-16,0.00712484,0.126608,-1.1445,1.38156,1.5e-05,0.560468,5.35041,0.900526,-7.25,14.97,22.22
2011-08-05 15:59:00,174563,0,0,0.00954672,3.81295,-2.56741e-15,4.9074800000000016e-18,-1.09783e-16,0.00707154,0.12651,-1.17606,1.35498,1.5e-05,0.563542,5.31093,0.820839,-7.33,15.7,23.03
2011-08-05 16:00:00,176668,0,0,0.0221303,3.7918,-2.54857e-15,3.5640800000000015e-18,-1.10379e-16,0.00701685,0.126409,-1.20722,1.3296,1.5e-05,0.516333,4.99483,0.583205,-7.37,17.88,25.25
2011-08-05 16:01:00,178773,0,0,0.0035723,3.76974,-2.52924e-15,2.2003400000000007e-18,-1.10575e-16,0.00696147,0.126306,-1.23971,1.30611,1.5e-05,0.468584,4.58288,0.349032,-8.1,18.27,26.37
2011-08-05 16:02:00,180877,0,0,0.0250865,3.74827,-2.51053e-15,9.87686e-19,-1.10588e-16,0.00690824,0.126203,-1.27002,1.28138,1.5e-05,0.463855,4.37514,0.199477,-8.82,16.86,25.67
2011-08-05 16:03:00,182982,0,0,0.00299199,3.73253,-2.49565e-15,-1.52423e-19,-1.10749e-16,0.00686246,0.126102,-1.29593,1.25306,1.5e-05,0.468981,4.30699,0.0982303,-8.77,14.91,23.68
2011-08-05 16:04:00,185087,0,0,0.0153205,3.72231,-2.48459e-15,-1.1669900000000001e-18,-1.11167e-16,0.00682324,0.126007,-1.32136,1.22555,1.5e-05,0.471822,4.27442,0.0693261,-8.77,12.73,21.49
2011-08-05 16:05:00,187193,0,0,0.00326289,3.71413,-2.47521e-15,-1.96409e-18,-1.11741e-16,0.00678748,0.125916,-1.34411,1.20121,1.5e-05,0.493503,4.31405,0.112226,-8.83,10.28,19.11
2011-08-05 16:06:00,189299,0,0,0.0160454,3.70681,-2.46658e-15,-2.58052e-18,-1.12425e-16,0.00675545,0.125829,-1.36659,1.17783,1.5e-05,0.522309,4.40345,0.150889,-8.77,9.11,17.88
2011-08-05 16:07:00,191405,0,0,0.0201675,3.70044,-2.45869e-15,-3.0657100000000007e-18,-1.13123e-16,0.00672801,0.125744,-1.3905,1.15421,1.5e-05,0.579701,4.44709,0.173474,-8.88,8.39,17.27
2011-08-05 16:08:00,193511,0,0,0.0196583,3.69615,-2.45227e-15,-3.4444900000000007e-18,-1.13817e-16,0.00670538,0.125665,-1.4152,1.13016,1.5e-05,0.631792,4.5026,0.206619,-9.53,7.75,17.28
2011-08-05 16:09:00,195617,0,0,0.0174785,3.69527,-2.44824e-15,-3.707e-18,-1.14681e-16,0.00668681,0.125593,-1.44019,1.10664,1.5e-05,0.677139,4.47601,0.207864,-10.05,6.97,17.02
2011-08-05 16:10:00,197723,0,0,0.0178119,3.69727,-2.44627e-15,-3.94031e-18,-1.156e-16,0.00667403,0.125528,-1.46672,1.08359,1.5e-05,0.680482,4.62164,0.332274,-10.52,5.64,16.16
2011-08-05 16:11:00,199829,0,0,0.023808,3.70043,-2.44519e-15,-4.24185e-18,-1.16309e-16,0.00666902,0.125468,-1.49612,1.0594,1.5e-05,0.645555,4.88258,0.497714,-10.45,4.45,14.9
2011-08-05 16:12:00,201935,0,0,0.0278148,3.70486,-2.44503e-15,-4.42941e-18,-1.16916e-16,0.00666731,0.125418,-1.52433,1.03665,1.5e-05,0.623253,5.0242,0.582635,-10.15,4.72,14.87
2011-08-05 16:13:00,204041,0,0,0.0251423,3.7119,-2.44664e-15,-4.52078e-18,-1.17463e-16,0.00666562,0.125383,-1.55095,1.01409,1.5e-05,0.555271,5.08598,0.58004,-10.26,5.75,16.0
2011-08-05 16:14:00,206147,0,0,0.0164663,3.72325,-2.45116e-15,-4.87822e-18,-1.17782e-16,0.00666592,0.125361,-1.57638,0.993018,1.5e-05,0.526687,5.01967,0.572663,-11.16,6.28,17.44
2011-08-05 16:15:00,208253,0,0,0.0131487,3.73484,-2.45606e-15,-5.34133e-18,-1.18495e-16,0.00666213,0.125348,-1.60239,0.97139,1.5e-05,0.531359,5.09805,0.616614,-11.64,5.56,17.2
2011-08-05 16:16:00,210359,0,0,0.017086,3.74253,-2.45868e-15,-5.60125e-18,-1.19999e-16,0.00665071,0.125341,-1.6285,0.947957,1.5e-05,0.53672,5.314,0.778317,-11.79,4.26,16.04
2011-08-05 16:17:00,212465,0,0,0.025545,3.7481,-2.46008e-15,-5.7059800000000016e-18,-1.21634e-16,0.00663968,0.12534,-1.65648,0.92669,1.5e-05,0.540028,5.51681,0.907788,-11.62,3.91,15.53
2011-08-05 16:18:00,214572,0,0,0.00161737,3.75134,-2.46005e-15,-5.8546300000000004e-18,-1.23033e-16,0.00663369,0.125345,-1.68727,0.911976,1.5e-05,0.543126,5.4849,0.976918,-11.59,4.37,15.96
2011-08-05 16:19:00,216679,0,0,0.000861557,3.75013,-2.45715e-15,-6.261310000000001e-18,-1.24207e-16,0.0066308,0.125356,-1.72254,0.89606,1.5e-05,0.548436,5.68489,1.05097,-11.85,4.72,16.57
2011-08-05 16:20:00,218785,0,0,0.0278208,3.74696,-2.45293e-15,-6.5942000000000015e-18,-1.24707e-16,0.00663007,0.125369,-1.75857,0.884466,1.5e-05,0.554804,5.66163,1.19785,-12.24,4.68,16.92
2011-08-05 16:21:00,220891,0,0,0.0284126,3.7432,-2.44827e-15,-6.6099800000000016e-18,-1.24418e-16,0.00662555,0.125381,-1.79584,0.879809,1.5e-05,0.562601,5.81461,1.34797,-12.29,5.1,17.4
2011-08-05 16:22:00,222997,0,0,0.0251422,3.73505,-2.44067e-15,-6.590040000000002e-18,-1.24099e-16,0.00660872,0.125395,-1.84147,0.865812,1.5e-05,0.569772,6.07298,1.37441,-12.77,6.42,19.19
2011-08-05 16:23:00,225103,0,0,0.0164675,3.72313,-2.43058e-15,-6.52195e-18,-1.23884e-16,0.00658176,0.125413,-1.88888,0.853195,1.5e-05,0.577077,5.93373,1.2961,-13.85,8.22,22.07
2011-08-05 16:24:00,227209,0,0,0.00156059,3.71071,-2.42022e-15,-6.2308600000000015e-18,-1.23487e-16,0.00655289,0.125438,-1.93581,0.848316,1.5e-05,0.588179,5.57136,1.14337,-14.49,10.03,24.52
2011-08-05 16:25:00,229314,0,0,0.0152631,3.69875,-2.41029e-15,-5.88422e-18,-1.2291e-16,0.00652499,0.125469,-1.98212,0.84483,1.5e-05,0.608002,5.2246,0.917154,-15.77,11.15,26.91
2011-08-05 16:26:00,231419,0,0,0.00302384,3.68771,-2.40114e-15,-5.650840000000001e-18,-1.22253e-16,0.00650036,0.125501,-2.02632,0.838535,1.5e-05,0.624112,4.89793,0.66381,-20.04,11.22,31.27
2011-08-05 16:27:00,233524,0,0,0.00333591,3.67812,-2.39295e-15,-5.4634800000000015e-18,-1.21654e-16,0.00648283,0.125526,-2.06685,0.82812,1.5e-05,0.662551,4.69591,0.519686,-27.21,9.87,37.08
2011-08-05 16:28:00,235629,0,0,0.0172493,3.6732,-2.38775e-15,-5.529350000000001e-18,-1.21283e-16,0.00647575,0.125552,-2.09635,0.81878,1.5e-05,0.634464,4.26,0.246264,-26.27,7.34,33.61
2011-08-05 16:29:00,237735,0,0,0.0104879,3.6768,-2.38807e-15,-6.30493e-18,-1.21258e-16,0.00648131,0.125571,-2.10765,0.809103,1.5e-05,0.663954,4.21326,0.229574,-26.23,5.55,31.78
2011-08-05 16:30:00,239841,0,0,0.0223949,3.68388,-2.39059e-15,-7.32728e-18,-1.21184e-16,0.00648769,0.125578,-2.11339,0.798448,1.5e-05,0.66362,4.07961,0.172562,-24.63,3.87,28.5
2011-08-05 16:31:00,241948,0,0,0.00695394,3.68905,-2.39188e-15,-8.086610000000001e-18,-1.20711e-16,0.00648658,0.125582,-2.12307,0.789556,1.5e-05,0.65972,3.97191,0.153224,-25.57,2.02,27.59
2011-08-05 16:32:00,244055,0,0,0.018913,3.69416,-2.39332e-15,-8.96403e-18,-1.19999e-16,0.00648525,0.125587,-2.13009,0.782985,1.5e-05,0.65974,3.997,0.266964,-24.31,0.65,24.95
2011-08-05 16:33:00,246163,0,0,0.00454539,3.70052,-2.39577e-15,-9.97141e-18,-1.19317e-16,0.00648722,0.125608,-2.13311,0.778558,1.5e-05,0.648735,4.05921,0.336888,-23.36,0.06,23.42
2011-08-05 16:34:00,248271,0,0,0.012785,3.70838,-2.39918e-15,-1.07925e-17,-1.18966e-16,0.00649223,0.125664,-2.13212,0.771387,1.5e-05,0.659363,4.36772,0.517666,-22.14,0.86,23.0
2011-08-05 16:35:00,250379,0,0,0.00612894,3.71747,-2.40336e-15,-1.15575e-17,-1.18948e-16,0.00649889,0.125736,-2.12533,0.761187,1.5e-05,0.694647,5.04559,1.03294,-21.68,2.59,24.28
2011-08-05 16:36:00,252487,0,0,0.00115479,3.72776,-2.40837e-15,-1.24551e-17,-1.19113e-16,0.00650629,0.125787,-2.11514,0.752211,1.5e-05,0.676738,5.52867,1.42402,-25.21,2.93,28.15
2011-08-05 16:37:00,254594,0,0,0.0272371,3.73985,-2.41476e-15,-1.33178e-17,-1.19323e-16,0.0065178,0.125838,-2.10609,0.743321,1.5e-05,0.711716,6.05598,1.75619,-22.93,4.06,26.99
2011-08-05 16:38:00,256701,0,0,0.0163996,3.75477,-2.42323e-15,-1.40178e-17,-1.19337e-16,0.00653347,0.125904,-2.09546,0.735141,1.5e-05,0.726083,6.33269,1.95454,-22.91,4.56,27.47
2011-08-05 16:39:00,258808,0,0,0.00302426,3.77329,-2.43424e-15,-1.4516e-17,-1.18933e-16,0.00655194,0.12597,-2.08184,0.736274,1.5e-05,0.738399,6.29399,2.0686,-24.39,5.95,30.34
2011-08-05 16:40:00,260914,0,0,0.0140289,3.79491,-2.4474e-15,-1.47531e-17,-1.18231e-16,0.00657298,0.126028,-2.0679,0.744642,1.5e-05,0.751939,6.27185,2.14258,-25.05,6.82,31.87
2011-08-05 16:41:00,263020,0,0,0.00364194,3.81805,-2.46158e-15,-1.46728e-17,-1.17379e-16,0.00659658,0.12607,-2.04929,0.754345,1.5e-05,0.764924,6.22862,2.13831,-25.5,5.59,31.09
2011-08-05 16:42:00,265126,0,0,0.00267749,3.84044,-2.47523e-15,-1.42525e-17,-1.16256e-16,0.00662219,0.126106,-2.0285,0.767886,1.5e-05,0.772301,6.13244,2.15345,-25.29,4.04,29.33
2011-08-05 16:43:00,267232,0,0,0.00732028,3.85788,-2.48585e-15,-1.39416e-17,-1.154e-16,0.00664807,0.126132,-2.02019,0.779442,1.5e-05,0.77782,6.26138,2.19436,-24.83,2.48,27.31
2011-08-05 16:44:00,269338,0,0,0.0155611,3.86703,-2.49145e-15,-1.41005e-17,-1.1524e-16,0.0066693,0.126138,-2.02705,0.783216,1.5e-05,0.779818,6.50923,2.25341,-24.76,1.66,26.41
2011-08-05 16:45:00,271444,0,0,0.0278343,3.86951,-2.49276e-15,-1.42522e-17,-1.15136e-16,0.0066783,0.126124,-2.03729,0.786406,1.5e-05,0.785276,6.66536,2.36032,-24.5,0.84,25.34
2011-08-05 16:46:00,273551,0,0,0.0101553,3.86858,-2.49173e-15,-1.41417e-17,-1.1467e-16,0.00667655,0.126088,-2.04409,0.79393,1.5e-05,0.785948,6.80248,2.52711,-24.48,0.14,24.62
2011-08-05 16:47:00,275658,0,0,0.0195093,3.86611,-2.48968e-15,-1.39352e-17,-1.13883e-16,0.00667124,0.126032,-2.04988,0.805725,1.5e-05,0.784482,6.87904,2.6254,-24.56,0.03,24.58
2011-08-05 16:48:00,277765,0,0,0.0193897,3.86311,-2.48734e-15,-1.36177e-17,-1.12924e-16,0.00666482,0.125964,-2.05753,0.818246,1.5e-05,0.793461,7.02465,2.73149,-24.27,0.83,25.1
2011-08-05 16:49:00,279872,0,0,0.0129292,3.86006,-2.48509e-15,-1.32205e-17,-1.11973e-16,0.00665817,0.12588,-2.06463,0.830015,1.5e-05,0.795425,7.07818,2.76778,-24.71,2.16,26.87
2011-08-05 16:50:00,281979,0,0,0.00471181,3.85736,-2.48324e-15,-1.29948e-17,-1.11132e-16,0.00665275,0.125783,-2.07121,0.844387,1.5e-05,0.800926,6.94105,2.70036,-25.23,3.24,28.47
2011-08-05 16:51:00,284085,0,0,0.0167639,3.85308,-2.48043e-15,-1.29407e-17,-1.10036e-16,0.00664596,0.125666,-2.07868,0.859534,1.5e-05,0.805183,6.3854,2.254,-25.6,5.87,31.48
2011-08-05 16:52:00,286190,0,0,0.0211119,3.84499,-2.47503e-15,-1.28672e-17,-1.08281e-16,0.00663532,0.125532,-2.08516,0.874155,1.5e-05,0.797785,5.58086,1.67453,-27.1,7.17,34.27
2011-08-05 16:53:00,288295,0,0,0.0165614,3.83576,-2.46905e-15,-1.27407e-17,-1.06447e-16,0.00662532,0.125384,-2.09204,0.889378,1.5e-05,0.79416,4.9557,1.26902,-27.5,5.23,32.73
2011-08-05 16:54:00,290401,0,0,0.00978029,3.82754,-2.46405e-15,-1.25679e-17,-1.04996e-16,0.00661831,0.125221,-2.10153,0.905827,1.5e-05,0.787471,4.47324,1.01009,-24.74,3.01,27.75
2011-08-05 16:55:00,292508,0,0,0.0173417,3.81862,-2.45873e-15,-1.23827e-17,-1.0363e-16,0.00660806,0.125043,-2.11405,0.919755,1.5e-05,0.768942,4.30156,0.876213,-22.78,-0.19,22.59
2011-08-05 16:56:00,294616,0,0,0.0232094,3.80819,-2.45242e-15,-1.21862e-17,-1.02152e-16,0.00659299,0.124849,-2.12737,0.933689,1.5e-05,0.751401,4.20646,0.896176,-20.64,-0.91,19.73
2011-08-05 16:57:00,296725,0,0,0.00191355,3.7967,-2.44539e-15,-1.19404e-17,-1.00596e-16,0.00657532,0.12465,-2.14111,0.952427,1.5e-05,0.744236,4.19483,0.973962,-18.99,-1.15,17.84
2011-08-05 16:58:00,298833,0,0,0.0129554,3.78473,-2.43801e-15,-1.15902e-17,-9.90591e-17,0.00655587,0.124443,-2.15598,0.970114,1.5e-05,0.743458,4.24402,1.03498,-18.7,2.14,20.84
2011-08-05 16:59:00,300941,0,0,0.0165882,3.77334,-2.43099e-15,-1.12321e-17,-9.76379e-17,0.00653659,0.124231,-2.17009,0.985215,1.5e-05,0.731982,4.22608,1.07269,-20.04,1.04,21.09
2011-08-05 17:00:00,303049,0,0,0.0120004,3.76375,-2.42521e-15,-1.10949e-17,-9.63934e-17,0.00652013,0.124032,-2.18484,0.997722,1.5e-05,0.740554,4.46079,1.31264,-20.27,0.24,20.51
2011-08-05 17:01:00,305157,0,0,0.0135019,3.7557,-2.42043e-15,-1.0978e-17,-9.52934e-17,0.00650308,0.123834,-2.19938,1.00595,1.5e-05,0.73507,4.73347,1.46092,-20.0,0.69,20.69
2011-08-05 17:02:00,307265,0,0,0.0142011,3.74866,-2.41626e-15,-1.0583e-17,-9.43212e-17,0.00648147,0.123647,-2.21499,1.01075,1.5e-05,0.738594,4.877,1.52125,-19.58,1.9,21.49
2011-08-05 17:03:00,309373,0,0,0.00691108,3.74412,-2.41363e-15,-1.00026e-17,-9.36546e-17,0.00645855,0.123464,-2.2323,1.01322,1.5e-05,0.739976,4.94631,1.5356,-19.62,2.83,22.45
2011-08-05 17:04:00,311481,0,0,0.00200396,3.74162,-2.41231e-15,-9.37544e-18,-9.32146e-17,0.00643675,0.123278,-2.24969,1.01613,1.5e-05,0.741768,4.87673,1.51795,-19.78,3.6,23.38
2011-08-05 17:05:00,313588,0,0,0.0253464,3.73871,-2.41084e-15,-8.763860000000001e-18,-9.26727e-17,0.00641487,0.123093,-2.26841,1.02146,1.5e-05,0.740244,4.79914,1.51705,-19.84,3.78,23.62
2011-08-05 17:06:00,315695,0,0,0.0249384,3.73301,-2.4075e-15,-8.164990000000001e-18,-9.21329e-17,0.00638842,0.12291,-2.28727,1.02655,1.5e-05,0.745462,4.87044,1.60159,-19.59,3.48,23.08
2011-08-05 17:07:00,317802,0,0,0.023369,3.72479,-2.40234e-15,-7.532130000000001e-18,-9.17137e-17,0.00635612,0.122725,-2.30667,1.0306,1.5e-05,0.746578,4.95738,1.66885,-19.01,3.34,22.35
2011-08-05 17:08:00,319909,0,0,0.0174046,3.71821,-2.39811e-15,-6.7994e-18,-9.12965e-17,0.0063237,0.122543,-2.32527,1.03188,1.5e-05,0.743264,5.05805,1.70355,-18.86,3.04,21.9
2011-08-05 17:09:00,322016,0,0,0.00801208,3.71336,-2.3949e-15,-5.97841e-18,-9.08094e-17,0.00629195,0.122369,-2.3402,1.0336,1.5e-05,0.760372,5.15242,1.82445,-18.69,2.62,21.31
2011-08-05 17:10:00,324123,0,0,0.011635,3.70759,-2.39101e-15,-5.1101700000000015e-18,-9.02186e-17,0.00625889,0.122192,-2.3543,1.03978,1.5e-05,0.764942,5.26047,2.01222,-18.25,2.47,20.72
2011-08-05 17:11:00,326230,0,0,0.00374985,3.70135,-2.38682e-15,-4.13212e-18,-8.94466e-17,0.00622736,0.122008,-2.37039,1.04595,1.5e-05,0.77592,5.47755,2.19116,-18.31,1.89,20.2
2011-08-05 17:12:00,328336,0,0,0.0219911,3.69419,-2.38206e-15,-2.9093600000000007e-18,-8.85357e-17,0.00619622,0.121815,-2.38819,1.04994,1.5e-05,0.79115,5.56409,2.20405,-18.73,2.51,21.23
2011-08-05 17:13:00,330442,0,0,0.00261407,3.68495,-2.3761e-15,-1.4431e-18,-8.75974e-17,0.00616195,0.121609,-2.40548,1.05628,1.5e-05,0.814737,5.3784,2.10662,-19.67,3.93,23.6
2011-08-05 17:14:00,332547,0,0,0.0156134,3.67427,-2.36946e-15,2.2651e-20,-8.66584e-17,0.00612516,0.121389,-2.42141,1.0674,1.5e-05,0.818647,5.05609,1.95058,-21.81,3.35,25.17